Regional Weather Roundup
Issued by NWS

Home | Current Version | Previous Version | Text Only | Print | Product List | Glossary On
Versions: 1 2 3 4 5 6 7 8 9 10 11 12 13 14 15 16 17 18 19 20 21 22 23 24 25 26 27 28 29 30 31 32 33 34 35 36 37 38 39 40 41 42 43 44 45 46 47 48 49 50
000
ASPQ40 PGUM 032310
RWRPQ
WEATHER ROUNDUP FOR THE MARIANAS AND MICRONESIA
NATIONAL WEATHER SERVICE TIYAN GU
900 AM CHST WED MAR 04 2015

GUZ001>004-040000-
MARIANA ISLANDS-

CITY           SKY/WX    TMP DP  RH WIND       PRES   REMARKS
GUAM AIRPORT   PTSUNNY   82  72  69 NE23G30   29.95R
ANDERSEN AFB   PTSUNNY   79  70  73 NE21      29.96R
ROTA AIRPORT   NOT AVBL
TINIAN AP      NOT AVBL
SAIPAN AP      MOSUNNY   82  68  61 E23G29    29.97R

$$

PMZ161-040000-
REPUBLIC OF PALAU-

CITY           SKY/WX    TMP DP  RH WIND       PRES   REMARKS
KOROR AP       NOT AVBL
KOROR WSO      NOT AVBL

$$

PMZ171>174-040000-
FEDERATED STATES OF MICRONESIA-

CITY           SKY/WX    TMP DP  RH WIND       PRES   REMARKS
YAP AIRPORT    NOT AVBL
CHUUK AP       NOT AVBL
POHNPEI AP     CLOUDY    86  77  74 E17       29.78  HX  97
POHNPEI WSO    NOT AVBL
KOSRAE AP      NOT AVBL

$$

PMZ181-040000-
REPUBLIC OF THE MARSHALL ISLANDS-

CITY           SKY/WX    TMP DP  RH WIND       PRES   REMARKS
KWAJALEIN AP   SUNNY     84  72  65 NE24      29.79S
MAJURO AP      NOT AVBL
MAJURO WSO     PTSUNNY   84  77  79 NE13      29.76F HX  94

$$



USA.gov is the U.S. government's official web portal to all federal, state and local government web resources and services.